Date,TemperatureHighF,TemperatureAvgF,TemperatureLowF,DewpointHighF,DewpointAvgF,DewpointLowF,HumidityHigh,HumidityAvg,HumidityLow,PressureMaxIn,PressureMinIn,WindSpeedMaxMPH,WindSpeedAvgMPH,GustSpeedMaxMPH,PrecipitationSumIn
2012-1-1,-19.0,-29.2,-35.4,-22.8,-33.9,-40.4,92,77,74,30.02,29.64,6,1,12,0.00
2012-1-2,-12.2,-28.6,-37.2,-15.9,-33.3,-42.4,92,77,74,29.79,29.63,7,1,10,0.00
2012-1-3,-33.2,-36.7,-39.0,-38.1,-41.8,-44.4,76,74,73,29.82,29.73,2,1,3,0.00
2012-1-4,-31.2,-36.7,-39.3,-35.7,-41.9,-44.7,78,74,73,29.74,29.52,2,0,3,0.00
2012-1-5,-30.3,-36.3,-39.3,-35.0,-41.5,-44.7,77,74,72,29.60,29.53,2,0,3,0.00
2012-1-6,-33.4,-37.2,-39.3,-37.6,-42.4,-44.9,89,74,72,29.74,29.60,1,0,3,0.00
2012-1-7,-18.8,-32.5,-39.0,-22.6,-37.4,-44.4,82,76,73,29.74,29.48,2,0,4,0.00
2012-1-8,-16.5,-24.7,-38.7,-20.4,-29.2,-44.1,92,79,73,29.77,29.50,1,0,3,0.00
2012-1-9,-5.0,-17.6,-39.3,-8.6,-21.7,-44.7,96,81,73,29.80,29.66,16,5,25,0.00
2012-1-10,-17.4,-26.0,-33.6,-21.7,-30.6,-38.5,92,78,75,29.74,29.49,9,3,14,0.00
2012-1-11,-9.3,-22.4,-33.5,-14.6,-27.0,-38.6,92,78,75,30.17,29.61,7,2,15,0.00
2012-1-12,-27.8,-32.5,-36.7,-32.3,-37.4,-42.2,80,76,73,30.58,30.17,4,0,5,0.00
2012-1-13,-26.6,-31.2,-34.7,-29.4,-36.0,-39.9,92,76,74,30.97,30.58,3,1,4,0.00
2012-1-14,1.4,-18.8,-33.6,-1.8,-23.0,-38.7,92,81,75,30.99,30.88,7,1,10,0.00
2012-1-15,7.5,5.3,1.1,5.3,2.5,-2.1,97,88,85,31.09,30.90,6,1,11,0.00
2012-1-16,8.4,-8.9,-18.3,6.3,-12.2,-22.4,98,85,81,31.14,31.07,2,0,4,0.00
2012-1-17,11.1,-6.0,-16.6,2.0,-10.1,-20.6,89,82,57,31.09,30.83,21,2,26,0.00
2012-1-18,17.7,8.4,1.2,6.9,-0.6,-7.8,83,66,53,30.87,30.29,18,4,25,0.00
2012-1-19,22.5,17.3,10.7,16.5,10.9,5.7,84,76,62,30.28,30.11,34,14,44,0.00
2012-1-20,22.5,17.9,11.8,11.7,5.7,2.8,70,59,48,30.22,29.90,20,9,30,0.00
2012-1-21,20.9,1.0,-6.2,11.9,-4.7,-11.3,86,77,58,29.91,29.54,28,15,42,0.00
2012-1-22,1.1,-2.6,-7.1,-6.4,-11.4,-17.0,77,65,55,29.76,29.49,19,11,31,0.00
2012-1-23,-0.9,-9.0,-19.0,-14.8,-18.8,-24.2,78,62,46,29.80,29.72,12,2,18,0.00
2012-1-24,-12.8,-21.8,-29.6,-21.2,-28.0,-34.8,85,72,61,29.74,29.59,5,1,10,0.00
2012-1-25,-11.3,-22.2,-29.6,-17.7,-28.5,-35.0,82,72,58,29.86,29.64,7,1,13,0.00
2012-1-26,-20.3,-25.5,-29.6,-25.8,-30.7,-34.9,79,75,72,30.15,29.86,6,1,9,0.00
2012-1-27,-20.5,-25.9,-29.4,-25.3,-30.8,-34.4,81,77,73,30.29,30.15,8,2,10,0.00
2012-1-28,-20.4,-23.6,-28.2,-25.4,-28.8,-33.4,92,76,69,30.29,30.16,9,4,12,0.00
2012-1-29,-14.0,-26.1,-33.0,-20.7,-31.4,-38.1,82,75,67,29.88,29.50,10,2,15,0.00
2012-1-30,-22.8,-27.9,-33.2,-27.5,-32.8,-38.3,81,76,75,29.51,29.46,3,1,4,0.00
2012-1-31,-23.2,-28.7,-33.5,-28.1,-33.8,-38.8,79,76,74,29.62,29.50,9,3,12,0.00
2012-2-1,-22.9,-28.9,-35.6,-30.6,-35.2,-41.6,78,71,65,29.62,29.22,8,2,12,0.00
2012-2-2,-19.3,-30.1,-37.7,-28.9,-37.3,-43.6,74,67,58,29.66,29.20,9,2,17,0.00
2012-2-3,-13.8,-29.3,-39.3,-18.7,-34.8,-45.6,80,74,69,29.73,29.66,6,1,8,0.00
2012-2-4,24.3,7.9,-20.3,23.3,3.9,-25.8,96,84,55,29.71,29.25,32,16,44,0.00
2012-2-5,28.7,26.2,23.1,28.2,25.3,21.9,98,97,95,29.52,29.31,29,20,38,0.00
2012-2-6,33.8,31.9,27.0,33.5,30.8,26.3,99,96,93,29.74,29.38,27,18,38,0.04
2012-2-7,34.0,31.1,26.0,32.0,27.6,22.1,97,87,77,29.75,29.67,15,4,22,0.01
2012-2-8,37.3,31.2,25.7,28.2,21.0,16.0,85,66,48,29.68,29.24,28,11,38,0.00
2012-2-9,36.2,30.1,25.4,30.4,24.9,15.9,91,81,60,29.33,29.22,21,14,31,0.00
2012-2-10,35.8,27.8,16.1,29.9,20.9,11.8,85,75,64,29.39,29.32,18,9,31,0.00
2012-2-11,35.5,24.4,9.3,24.6,17.2,6.0,91,74,55,29.38,29.01,26,10,34,0.00
2012-2-12,33.0,28.8,23.4,23.9,20.6,16.4,81,71,66,29.03,28.98,12,3,16,0.00
2012-2-13,30.5,27.4,25.1,26.3,24.4,22.1,94,88,79,29.34,29.13,10,3,17,0.00
2012-2-14,26.3,18.5,6.9,24.4,16.3,3.6,95,91,83,29.60,29.34,9,2,13,0.00
2012-2-15,27.6,23.5,17.0,19.5,17.1,13.6,91,76,64,29.58,29.26,25,10,32,0.00
2012-2-16,28.3,25.0,20.6,24.4,20.8,17.9,90,84,80,29.52,29.30,22,6,29,0.00
2012-2-17,26.5,22.5,19.1,21.8,17.6,13.1,88,81,74,29.56,29.47,17,3,23,0.00
2012-2-18,30.8,27.8,24.5,25.2,23.0,19.2,88,82,75,29.48,29.34,20,11,29,0.00
2012-2-19,29.6,27.7,25.3,28.1,24.6,20.5,100,88,71,29.34,29.25,17,13,26,0.00
2012-2-20,29.5,26.8,21.9,23.0,19.4,14.3,86,74,61,29.25,29.00,38,17,49,0.00
2012-2-21,25.2,10.8,1.4,16.0,5.1,-1.8,90,78,63,29.44,29.08,16,3,23,0.00
2012-2-22,10.2,4.9,-1.9,4.8,0.5,-6.1,92,82,77,30.01,29.44,7,3,9,0.00
2012-2-23,-1.2,-10.4,-18.9,-6.1,-15.3,-23.2,85,79,64,30.47,30.01,3,0,5,0.00
2012-2-24,-10.9,-17.8,-23.4,-14.6,-22.0,-28.1,85,80,77,30.51,30.46,4,1,7,0.00
2012-3-1,6.7,1.4,-4.1,-6.4,-10.2,-13.6,65,57,49,29.91,29.59,27,12,39,0.00
2012-3-2,5.3,-2.9,-11.3,-2.1,-9.8,-18.0,84,72,61,29.78,29.61,7,2,9,0.00
2012-3-3,0.8,-4.7,-11.6,-6.2,-11.2,-17.3,79,73,67,30.13,29.78,10,6,14,0.00
2012-3-4,-4.8,-11.0,-17.3,-9.9,-17.1,-22.8,78,74,68,30.27,30.10,10,6,13,0.00
2012-3-5,8.5,3.9,-4.1,5.7,0.1,-9.0,88,84,71,30.09,29.40,23,9,31,0.00
2012-3-6,10.4,-0.0,-10.1,3.5,-4.6,-14.4,87,81,69,29.78,29.50,8,3,16,0.00
2012-3-7,3.8,-5.4,-17.2,-3.4,-11.2,-21.6,84,75,68,30.00,29.78,10,3,13,0.00
2012-3-8,-0.2,-10.4,-19.3,-6.7,-15.3,-24.0,85,78,72,29.98,29.61,8,2,11,0.00
2012-3-9,5.1,-9.2,-23.5,-2.5,-14.4,-28.1,92,77,69,29.77,29.61,7,1,10,0.00
2012-3-10,-11.7,-14.4,-15.7,-15.9,-18.6,-19.8,84,81,79,29.78,29.77,5,1,8,0.00
2012-3-11,0.4,-13.9,-24.5,-6.2,-19.6,-29.3,84,75,61,30.09,29.93,8,1,10,0.00
2012-3-12,9.6,-1.9,-15.7,1.9,-7.5,-19.8,88,77,65,30.09,29.61,25,4,32,0.00
2012-3-13,11.0,7.4,0.4,1.9,-1.7,-7.2,76,66,58,29.61,29.25,25,10,30,0.00
2012-3-14,6.4,3.9,2.2,-2.1,-4.1,-5.4,71,69,66,29.27,29.25,17,10,24,0.00
2012-3-15,18.5,10.2,0.8,7.7,1.9,-4.8,83,69,56,29.40,29.24,17,2,31,0.00
2012-3-16,17.3,9.8,-1.4,4.0,-1.1,-11.3,75,61,47,29.74,29.40,8,2,16,0.00
2012-3-17,9.9,-2.9,-13.4,-5.7,-12.5,-19.3,78,63,46,29.95,29.74,5,1,8,0.00
2012-3-18,5.6,-7.4,-19.5,-7.8,-16.0,-25.0,79,66,50,30.06,29.95,12,1,18,0.00
2012-3-19,3.5,-7.8,-17.2,-8.4,-15.7,-23.0,80,68,54,30.20,30.06,9,2,15,0.00
2012-3-20,5.0,-5.3,-12.6,-8.6,-14.7,-20.5,76,63,50,30.20,30.15,9,2,16,0.00
2012-3-21,4.1,-8.4,-18.3,-6.5,-15.5,-24.1,80,70,58,30.22,30.13,7,3,10,0.00
2012-3-22,12.2,-3.6,-18.3,-0.5,-11.9,-23.4,92,68,52,30.27,29.97,23,4,30,0.00
2012-3-23,14.8,11.0,7.2,10.5,4.4,-4.2,88,75,57,29.97,29.51,26,12,35,0.00
2012-3-24,18.7,9.0,-8.3,11.1,4.6,-12.0,89,82,70,29.93,29.60,6,1,8,0.00
2012-3-25,22.0,11.9,5.7,13.1,7.2,1.5,88,81,67,29.95,29.69,8,2,12,0.00
2012-3-26,24.8,13.9,7.3,14.5,7.4,3.2,87,76,60,29.70,29.54,12,6,24,0.00
2012-3-27,27.4,19.0,10.5,20.2,10.4,3.2,81,69,60,29.55,29.11,29,13,36,0.00
2012-3-28,29.7,24.1,17.5,23.6,18.7,10.8,92,80,61,29.17,29.07,29,13,36,0.00
2012-3-29,38.5,30.2,25.2,26.0,21.6,18.5,83,71,53,29.21,29.15,20,6,29,0.00
2012-3-30,28.9,20.3,8.4,19.1,8.8,-1.5,71,61,48,29.55,29.27,17,5,30,0.00
2012-3-31,21.6,12.3,3.7,6.7,0.3,-5.4,67,58,47,29.81,29.56,7,3,13,0.00
2012-4-1,19.3,8.6,2.0,5.1,-1.0,-5.2,72,65,51,30.02,29.81,7,3,12,0.00
2012-4-2,19.0,5.2,-2.7,3.1,-3.7,-8.7,78,67,47,30.03,29.82,9,4,13,0.00
2012-4-3,11.3,1.8,-4.7,3.6,-4.9,-11.2,82,73,66,29.83,29.76,10,6,13,0.00
2012-4-4,19.5,5.5,-6.8,11.9,-0.3,-11.4,81,76,71,29.83,29.70,11,7,15,0.00
2012-4-5,19.8,14.2,7.7,17.9,10.7,4.0,94,86,77,29.88,29.48,13,7,17,0.00
2012-4-6,8.0,3.8,-3.6,4.8,-1.1,-8.5,88,80,67,30.29,29.88,13,6,20,0.00
2012-4-7,24.0,11.0,-6.6,22.5,4.9,-10.6,94,77,57,30.29,30.03,20,10,30,0.00
2012-4-8,33.9,28.9,24.1,32.2,27.2,22.6,100,94,89,30.03,29.65,26,20,36,0.01
2012-4-9,33.7,31.6,27.8,30.8,29.6,26.0,96,92,88,29.91,29.65,23,16,33,0.01
2012-4-10,38.3,30.1,23.1,27.9,24.8,20.5,95,81,60,29.93,29.88,15,4,21,0.00
2012-4-11,45.1,29.8,17.8,30.1,22.1,14.1,90,74,51,29.99,29.93,8,2,9,0.00
2012-4-12,37.0,28.2,15.4,25.4,19.1,10.3,82,68,56,30.06,30.00,9,4,17,0.00
2012-4-13,30.6,23.0,17.3,20.7,15.4,10.7,81,73,62,30.05,29.92,11,6,15,0.00
2012-4-14,33.7,20.6,9.8,25.3,14.7,5.8,86,78,68,29.93,29.79,10,5,14,0.00
2012-4-15,37.2,23.8,14.6,27.4,18.3,10.6,85,79,67,29.79,29.74,11,7,15,0.00
2012-4-16,38.9,27.6,14.3,27.6,21.0,11.7,92,77,61,29.82,29.77,8,1,13,0.00
2012-4-17,32.6,22.2,9.5,25.6,17.6,6.9,94,83,61,29.84,29.77,8,1,10,0.00
2012-4-18,36.6,25.8,13.4,27.5,20.4,11.3,94,80,65,29.93,29.79,8,2,12,0.00
2012-4-19,32.4,24.1,15.0,25.4,18.7,11.6,88,80,65,29.96,29.89,8,3,11,0.00
2012-4-20,31.6,21.9,11.3,24.3,17.4,8.8,92,83,69,29.89,29.85,6,2,11,0.00
2012-4-21,28.0,23.5,22.0,22.1,21.0,20.3,94,90,76,29.96,29.86,5,2,8,0.00
2012-4-22,33.5,28.1,24.4,24.7,22.5,20.8,92,80,66,30.00,29.84,12,7,19,0.00
2012-4-23,45.6,38.0,30.9,32.6,28.5,23.9,82,69,56,29.85,29.79,11,4,14,0.00
2012-4-24,53.3,39.4,29.0,34.6,30.9,26.7,91,72,47,30.02,29.85,8,3,12,0.00
2012-4-25,50.0,34.8,22.2,33.6,27.9,20.2,94,77,52,30.03,29.97,7,1,11,0.00
2012-4-26,46.9,37.0,29.6,32.7,28.5,25.2,84,72,49,29.98,29.87,9,4,12,0.00
2012-4-27,41.7,33.5,24.4,30.3,26.2,20.8,91,75,61,29.88,29.68,8,2,12,0.00
2012-4-28,40.7,30.3,21.2,30.2,25.6,19.2,93,83,65,29.70,29.68,4,1,8,0.00
2012-4-29,35.5,26.7,16.4,22.1,17.8,12.3,85,69,51,29.95,29.72,6,2,10,0.00
2012-4-30,32.6,22.9,12.2,21.5,14.9,8.0,88,72,57,30.01,29.95,8,2,11,0.00
2012-5-1,23.5,16.0,8.4,12.1,7.0,1.4,80,68,51,30.06,29.95,9,4,15,0.00
2012-5-2,21.1,15.9,11.9,13.6,9.8,6.1,88,77,63,29.95,29.82,7,3,11,0.00
2012-5-3,22.2,12.0,6.8,9.8,5.1,2.5,88,74,52,29.82,29.76,11,3,17,0.03
2012-5-4,31.0,17.2,1.5,17.6,6.6,-2.7,84,65,39,30.02,29.82,14,4,21,0.00
2012-5-5,43.6,33.7,19.8,24.9,19.7,12.2,77,58,38,30.02,29.99,17,5,21,0.00
2012-5-6,38.7,25.4,18.1,22.3,15.7,11.8,78,67,49,30.00,29.82,8,4,11,0.00
2012-5-7,46.9,38.7,28.2,30.5,26.5,21.3,75,62,48,29.83,29.76,25,5,32,0.00
2012-5-8,42.2,33.9,26.7,29.2,26.2,22.3,86,74,51,29.81,29.66,7,2,11,0.00
2012-5-9,42.6,35.1,28.7,30.5,27.9,25.7,92,76,59,29.66,29.47,7,1,10,0.00
2012-5-10,30.7,28.5,26.2,26.1,24.4,22.6,86,84,83,29.47,29.45,7,4,10,0.00
2012-5-11,31.5,23.3,17.4,22.4,16.6,12.4,87,76,57,29.47,29.34,8,3,12,0.00
2012-5-12,42.8,30.1,15.8,29.7,22.5,12.2,92,74,58,29.72,29.47,7,2,11,0.04
2012-5-13,40.9,32.5,22.5,30.8,25.8,19.4,88,77,60,30.01,29.72,7,4,10,0.00
2012-5-14,33.9,28.7,19.7,29.1,25.1,17.8,95,86,78,30.18,30.01,9,3,15,0.00
2012-5-15,37.1,30.3,26.8,31.1,26.1,22.9,88,84,77,30.19,30.14,14,6,19,0.00
2012-5-16,36.9,36.1,34.9,36.5,34.4,31.5,100,94,83,30.16,30.07,14,9,23,1.21
2012-5-17,52.9,44.0,34.2,40.8,35.6,32.4,98,74,48,30.17,29.93,9,3,14,0.00
2012-5-18,63.8,48.1,30.3,35.6,32.3,27.9,92,59,31,29.94,29.78,6,2,9,0.00
2012-5-19,62.1,47.1,32.1,38.6,33.5,28.7,88,62,34,29.79,29.72,7,2,11,0.00
2012-5-20,49.4,40.3,27.8,37.4,33.8,26.6,96,78,62,29.75,29.70,7,2,12,0.00
2012-5-21,60.3,45.5,27.2,37.3,32.7,26.0,96,66,36,29.71,29.64,5,1,10,0.00
2012-5-22,64.2,50.3,36.6,37.9,35.3,31.4,83,59,36,29.76,29.67,6,2,13,0.00
2012-5-23,50.5,41.8,33.5,39.8,35.9,31.5,95,80,64,30.09,29.81,5,2,10,0.00
2012-5-24,52.5,40.9,27.1,40.0,34.5,25.9,97,79,61,30.16,30.00,7,2,11,0.00
2012-5-25,58.0,44.7,30.1,36.5,31.0,24.6,95,62,29,30.00,29.75,6,2,11,0.00
2012-5-26,55.9,45.0,29.2,33.0,25.6,17.4,82,50,26,29.77,29.68,5,2,12,0.00
2012-5-27,54.7,44.0,31.3,37.6,33.5,28.6,91,69,50,29.78,29.73,7,3,13,0.00
2012-5-28,54.2,42.1,27.9,36.7,32.8,26.2,96,72,47,29.78,29.61,8,2,13,0.00
2012-5-29,63.2,48.3,32.5,37.7,33.1,29.1,89,59,35,29.63,29.48,7,2,15,0.00
2012-5-30,63.4,50.0,31.2,37.9,33.5,29.4,94,58,32,29.48,29.40,7,2,12,0.00
2012-5-31,57.3,46.4,29.3,38.7,34.8,27.3,94,66,48,29.68,29.47,9,3,17,0.00
2012-6-1,59.3,42.7,29.2,37.7,33.3,27.4,95,72,36,29.75,29.68,7,2,18,0.00
2012-6-2,53.8,41.8,30.6,37.3,31.5,26.4,86,68,48,29.99,29.80,10,4,18,0.00
2012-6-3,43.8,34.2,25.5,32.8,29.7,23.8,96,84,65,30.10,29.99,8,2,14,0.00
2012-6-4,69.8,53.4,36.2,40.5,35.6,31.6,91,57,26,30.10,29.91,13,2,19,0.00
2012-6-5,70.6,60.0,50.6,42.6,36.4,31.7,55,42,30,29.95,29.90,17,7,28,0.00
2012-6-6,79.0,63.9,45.1,47.3,41.7,34.4,83,47,28,29.98,29.92,14,4,21,0.00
2012-6-7,80.1,66.4,45.5,47.8,43.8,39.6,82,46,27,29.93,29.78,14,4,20,0.00
2012-6-8,73.8,61.0,46.2,52.1,46.8,42.5,90,63,33,29.84,29.74,10,2,17,0.01
2012-6-9,59.1,54.5,48.6,47.7,43.8,40.5,79,67,58,29.83,29.72,9,3,16,0.00
2012-6-10,58.5,47.1,43.1,44.8,42.6,40.0,97,86,57,30.00,29.90,7,3,14,0.00
2012-6-11,75.8,58.2,41.5,50.4,44.6,38.3,90,64,39,29.96,29.88,8,3,13,0.00
2012-6-12,73.4,60.1,40.4,48.1,41.5,35.3,82,53,32,29.91,29.85,6,3,13,0.00
2012-6-13,59.1,49.7,32.8,46.3,40.7,30.4,94,72,55,29.93,29.86,8,3,15,0.00
2012-6-14,44.1,37.5,32.2,38.3,34.5,30.4,94,89,80,29.93,29.92,3,0,6,0.00
2012-6-15,75.2,60.5,40.8,49.1,43.3,38.0,95,58,28,29.80,29.55,6,2,15,0.00
2012-6-16,77.8,65.5,38.5,50.2,44.8,36.9,97,51,26,29.55,29.43,13,2,13,0.00
2012-6-17,76.3,58.3,40.3,50.2,45.4,37.9,93,65,35,29.82,29.53,14,1,16,0.00
2012-6-18,66.7,54.7,41.7,48.0,43.9,38.8,94,69,42,29.98,29.82,15,3,17,0.00
2012-6-19,57.1,46.4,34.6,46.5,40.1,33.3,100,80,60,30.11,29.98,17,3,18,0.00
2012-6-20,47.2,41.9,35.6,41.8,37.6,33.4,94,85,68,30.20,30.11,13,1,13,0.00
2012-6-21,46.7,42.2,38.6,43.9,39.9,36.8,96,92,86,30.18,30.09,10,1,12,0.01
2012-6-22,58.6,46.4,38.8,47.1,41.8,38.0,97,85,62,30.09,29.97,12,2,13,0.00
2012-6-23,59.3,49.5,33.4,52.9,44.4,32.1,100,83,55,29.97,29.55,13,2,15,0.02
2012-6-24,61.2,57.1,52.4,56.8,52.7,49.0,96,86,73,29.54,29.28,12,3,19,0.19
2012-6-25,53.0,47.9,42.2,51.6,45.2,40.6,97,91,75,29.52,29.29,16,3,19,0.02
2012-6-26,62.7,53.1,43.9,50.9,46.2,42.8,100,79,56,29.58,29.52,6,0,9,0.00
2012-6-27,67.4,55.3,47.4,51.8,46.6,43.7,90,74,51,29.71,29.58,14,2,17,0.00
2012-6-28,70.0,55.9,42.8,50.8,44.9,39.9,90,69,44,29.78,29.71,14,2,14,0.00
2012-6-29,59.4,51.3,40.9,47.8,44.5,38.6,97,78,60,29.78,29.76,12,2,14,0.00
2012-6-30,56.3,46.5,40.4,46.4,41.6,38.3,93,83,67,29.77,29.69,6,1,13,0.00
2012-7-1,61.3,48.4,32.7,47.0,41.1,31.2,98,77,52,29.76,29.69,8,2,15,0.00
2012-7-2,55.1,48.0,39.9,49.0,44.0,38.6,99,87,72,29.76,29.58,12,5,23,0.04
2012-7-3,60.5,52.1,46.5,50.1,47.4,45.1,97,85,63,29.59,29.50,6,2,12,0.06
2012-7-4,60.0,53.1,47.2,49.8,46.9,43.7,100,81,55,29.78,29.48,8,3,17,0.15
2012-7-5,54.1,48.6,37.4,52.2,46.5,36.1,97,92,76,29.85,29.79,5,1,10,0.19
2012-7-6,67.7,62.0,49.1,53.3,50.3,47.4,95,66,57,29.93,29.81,8,1,9,0.44
2012-7-7,77.3,61.8,42.3,57.6,49.1,41.2,98,67,35,29.96,29.88,13,2,13,0.00
2012-7-8,79.7,63.5,44.9,52.8,46.6,41.6,91,59,30,29.89,29.72,11,1,12,0.00
2012-7-9,60.6,53.6,38.8,53.2,48.0,37.0,98,82,64,29.82,29.73,16,4,16,0.00
2012-7-10,50.4,48.1,46.5,44.2,43.0,41.9,85,82,80,29.82,29.81,6,2,8,0.00
2012-7-11,74.4,66.3,53.3,53.0,45.6,36.8,75,48,31,29.76,29.60,22,3,22,0.00
2012-7-12,65.2,60.7,55.7,50.5,45.9,41.5,80,60,43,29.66,29.62,20,6,22,0.00
2012-7-13,62.8,53.7,37.9,52.0,46.5,36.6,98,78,58,29.88,29.74,14,2,15,0.00
2012-7-14,56.2,50.2,43.5,49.8,46.5,41.9,100,87,69,29.94,29.81,6,2,16,0.07
2012-7-15,60.5,53.6,48.5,50.5,48.0,44.5,93,82,62,29.96,29.77,12,3,14,0.02
2012-7-16,48.5,43.2,38.2,44.8,41.1,36.5,94,92,87,30.01,29.96,2,0,2,0.00
2012-9-11,53.8,46.5,37.7,34.1,29.8,25.4,74,53,33,29.80,29.78,12,3,12,0.00
2012-9-12,53.9,43.0,29.3,36.8,30.5,25.5,92,65,35,29.91,29.80,17,2,18,0.00
2012-9-13,55.1,40.3,27.6,39.2,32.3,25.8,94,75,42,29.91,29.79,13,1,13,0.00
2012-9-14,49.5,36.1,24.0,35.1,29.7,22.5,97,79,52,29.81,29.78,14,2,18,0.00
2012-9-15,46.9,35.1,23.5,36.2,28.5,21.8,95,78,55,29.82,29.56,17,3,19,0.00
2012-9-16,40.4,38.0,32.2,37.3,33.8,27.8,95,85,67,29.56,28.89,36,9,36,0.54
2012-9-17,42.2,37.3,28.2,37.2,35.0,26.7,100,91,80,29.54,28.93,14,2,15,0.01
2012-9-18,44.3,35.3,26.1,43.2,33.8,24.9,99,94,85,29.54,29.30,14,2,16,0.07
2012-9-19,49.6,44.2,40.1,43.9,41.9,39.3,97,92,74,29.45,29.31,10,2,13,0.18
2012-9-20,46.8,41.0,36.0,43.9,39.7,34.5,99,95,81,29.66,29.44,9,0,10,0.01
2012-9-21,44.1,38.9,33.9,39.7,36.2,32.7,97,90,80,29.76,29.66,12,2,13,0.00
2012-9-22,38.1,36.6,33.5,36.5,34.8,31.7,97,93,92,29.68,29.61,8,1,9,0.00
2012-10-10,42.9,37.9,32.9,19.4,16.1,9.6,54,41,29,30.38,30.19,25,12,28,0.00
2012-10-11,47.4,36.0,21.2,18.6,11.9,5.5,73,39,20,30.20,29.88,22,4,23,0.00
2012-10-12,34.6,31.7,27.9,26.2,21.6,17.0,83,66,51,29.89,29.74,24,6,24,0.00
2012-10-13,40.2,30.1,21.0,27.6,22.8,17.5,98,75,57,29.76,29.60,15,5,30,0.00
2012-10-14,34.4,24.5,18.0,27.8,20.6,14.4,96,85,70,29.62,29.51,19,2,21,0.00
2012-10-15,31.5,23.3,15.5,23.9,18.8,13.2,94,83,64,29.72,29.62,16,2,17,0.00
2012-10-16,31.2,25.6,19.0,22.1,18.7,15.6,94,76,59,30.02,29.72,20,3,20,0.00
2012-10-17,32.8,22.6,12.3,22.9,17.2,9.7,94,81,56,30.21,30.02,15,2,16,0.00
2012-10-18,33.5,25.7,11.9,20.5,17.4,9.3,90,71,57,30.28,30.21,17,3,18,0.00
2012-10-19,29.9,22.7,11.4,29.0,20.5,8.8,97,91,86,30.38,30.28,6,0,7,0.00
2012-10-20,34.3,31.2,28.9,33.8,30.5,28.2,100,97,95,30.45,30.36,8,1,9,0.02
2012-10-21,34.9,32.6,31.3,32.6,30.7,28.9,98,93,85,30.36,30.10,21,7,23,0.00
2012-10-22,35.4,33.4,32.4,35.2,33.0,31.8,99,98,97,30.51,30.11,6,0,6,0.18
2012-10-23,36.7,29.3,18.4,32.5,27.5,17.0,100,93,82,30.62,30.51,8,1,8,0.08
2012-10-24,35.3,25.2,17.9,27.8,21.9,16.5,100,88,67,30.64,30.59,7,0,7,0.02
2012-10-25,35.4,26.6,18.7,27.9,22.9,17.0,96,86,65,30.61,30.49,4,0,5,0.01
2012-10-26,30.3,26.4,20.7,29.8,25.5,19.5,98,96,94,30.50,30.32,6,1,6,0.00
2012-10-27,30.8,20.7,15.4,29.3,19.4,13.7,97,94,92,30.33,30.22,6,0,6,0.01
2012-10-28,35.2,22.8,14.9,32.0,21.3,13.2,97,94,85,30.24,30.14,4,0,5,0.03
2012-10-29,33.1,25.6,21.6,29.4,20.8,15.8,97,82,72,30.41,30.14,24,5,28,0.00
2012-10-30,29.0,25.6,20.9,23.6,20.9,15.7,90,82,76,30.47,30.41,19,4,21,0.00
2012-10-31,26.5,19.5,13.4,17.4,12.7,8.1,89,75,58,30.47,30.32,17,2,19,0.00
2012-11-1,22.8,17.2,6.3,11.4,8.2,3.5,90,68,57,30.33,30.19,23,3,25,0.00
2012-11-2,26.5,18.9,8.1,20.7,12.9,5.3,95,78,62,30.19,29.90,29,6,32,0.00
2012-11-3,22.1,16.3,9.4,9.5,5.6,2.6,76,62,47,30.04,29.97,22,4,26,0.00
2012-11-4,29.9,17.2,0.1,20.8,11.1,-3.4,94,77,58,30.08,30.01,19,2,19,0.00
2012-11-5,21.1,12.0,1.4,16.3,8.8,-1.6,100,87,80,30.26,30.08,6,0,8,0.00
2012-11-6,30.1,24.8,18.8,28.7,22.8,15.1,97,92,85,30.36,30.25,14,1,14,0.00
2012-11-7,28.1,24.4,21.5,26.3,22.9,20.0,96,94,90,30.42,30.31,10,1,11,0.00
2012-11-8,26.9,22.9,16.0,23.4,16.0,9.8,93,75,58,30.32,29.87,12,2,14,0.00
2012-11-9,32.1,29.3,26.3,26.1,22.4,17.3,86,75,62,29.87,29.61,21,5,23,0.00
2012-11-10,32.1,25.8,13.3,25.4,17.8,5.0,88,72,43,29.78,29.64,14,2,17,0.00
2012-11-11,17.6,10.0,5.5,9.7,5.3,1.7,91,81,65,30.05,29.77,9,0,9,0.00
2012-11-12,19.7,6.6,0.8,12.7,3.8,-1.9,100,88,69,30.19,30.05,9,0,12,0.00
2012-11-13,30.7,27.1,19.8,12.3,9.2,3.5,69,47,31,30.10,29.55,36,16,39,0.00
2012-11-14,31.2,23.2,15.0,5.4,2.1,-2.1,63,40,28,30.02,29.51,47,20,47,0.00
2012-11-15,23.7,17.6,4.9,12.1,5.8,0.2,88,60,42,30.31,30.02,26,5,26,0.00
2012-11-16,18.9,5.7,0.2,14.1,2.4,-3.0,92,86,75,30.31,30.03,7,0,7,0.00
2012-11-17,17.0,9.3,-2.2,4.9,-4.2,-8.5,82,55,33,30.04,29.90,33,6,38,0.00
2012-11-18,20.6,10.9,3.5,1.6,-2.6,-6.9,73,54,39,30.14,29.89,17,2,17,0.00
2012-11-19,10.9,3.4,-3.5,0.6,-4.3,-9.0,83,70,58,30.28,30.14,11,2,12,0.00
2012-11-20,12.5,4.3,-4.1,5.6,-2.4,-9.4,94,74,56,30.27,30.17,9,1,11,0.00
2012-11-21,11.4,2.5,-6.5,5.6,-1.3,-10.1,93,84,75,30.27,30.14,4,0,4,0.00
2012-11-22,4.4,-2.5,-6.7,1.1,-5.9,-10.4,89,85,82,30.31,30.16,9,0,9,0.00
2012-11-23,23.2,12.5,2.4,6.3,2.2,-2.9,87,64,46,30.16,30.05,22,4,25,0.00
2012-11-24,24.2,17.0,6.3,6.4,3.5,0.1,80,56,39,30.19,30.07,19,2,21,0.00
2012-11-25,17.0,9.0,4.6,5.4,2.1,-0.4,92,73,57,30.32,30.18,8,1,8,0.00
2012-11-26,24.5,12.0,3.5,11.3,4.5,-0.8,94,72,46,30.31,30.00,26,2,26,0.00
2012-11-27,16.8,11.6,6.7,14.4,8.6,3.9,100,87,80,30.27,29.98,6,0,6,0.00
2012-11-28,25.6,16.8,9.3,20.6,9.6,0.6,91,74,46,30.35,30.27,13,1,17,0.00
2012-11-29,15.5,6.7,-2.1,5.0,1.0,-5.6,88,77,58,30.35,30.25,11,1,11,0.00
2012-11-30,17.1,6.7,-1.8,14.1,3.8,-5.1,100,88,85,30.27,30.06,4,0,4,0.00
2012-12-1,17.5,13.3,0.3,15.3,11.0,-2.9,94,90,83,30.06,29.95,6,0,8,0.00
2012-12-2,14.3,4.4,-5.3,7.9,-0.8,-8.9,90,79,67,30.24,29.99,14,2,14,0.00
2012-12-3,-0.1,-7.0,-11.8,-3.1,-10.5,-15.7,88,84,81,30.29,30.19,5,0,7,0.00
2012-12-4,-0.6,-9.5,-13.6,-3.9,-13.1,-17.6,95,84,81,30.22,30.05,7,0,7,0.00
2012-12-5,7.3,-3.5,-12.7,-0.1,-8.7,-16.6,88,78,65,30.11,30.02,21,2,23,0.00
2012-12-6,6.7,2.0,-4.1,-4.6,-6.8,-10.4,76,66,57,30.24,30.11,20,3,21,0.00
2012-12-7,-0.1,-7.1,-13.2,-7.4,-12.2,-17.6,85,78,69,30.24,30.11,12,1,12,0.00
2012-12-8,22.7,7.1,-12.5,2.3,-4.6,-16.8,92,59,40,30.12,29.27,35,11,39,0.00
2012-12-9,19.9,12.7,8.7,5.2,0.4,-4.7,78,58,40,29.47,29.27,30,5,31,0.00
2012-12-10,14.1,10.1,-8.4,9.8,6.0,-11.9,92,83,73,29.84,29.47,7,1,8,0.00
2012-12-11,11.3,1.1,-13.3,8.3,-4.6,-17.4,92,77,54,29.90,29.18,28,6,30,0.00
2012-12-12,12.3,7.1,-1.5,7.7,-0.0,-10.7,85,72,61,29.31,29.05,27,6,27,0.00
2012-12-13,-0.3,-13.2,-22.3,-9.9,-19.0,-27.0,85,75,61,29.59,29.31,11,1,11,0.00
2012-12-14,-12.8,-20.0,-23.9,-17.2,-24.6,-28.8,92,79,74,29.71,29.58,9,0,10,0.00
2012-12-15,1.4,-12.1,-24.1,-1.1,-16.2,-29.0,92,81,77,29.73,29.56,16,2,18,0.00
2012-12-16,6.3,-10.0,-18.5,2.2,-13.8,-22.8,95,83,80,29.74,29.52,22,1,23,0.00
2012-12-17,15.3,5.6,-8.3,13.1,2.7,-12.3,92,88,82,29.52,29.06,30,8,31,0.00
2012-12-18,-4.5,-23.1,-34.7,-7.7,-27.5,-40.1,92,79,74,30.17,29.36,6,0,7,0.00
2012-12-19,-15.2,-28.3,-35.8,-19.1,-33.1,-41.0,92,77,74,30.53,30.17,3,0,4,0.00
2012-12-20,8.9,-3.7,-20.5,3.8,-7.7,-25.0,88,83,67,30.55,30.30,21,3,22,0.00
2012-12-21,21.6,14.8,8.0,1.6,-1.3,-3.6,68,49,35,30.31,30.07,30,7,32,0.00
2012-12-22,20.1,2.4,-8.0,0.8,-6.0,-12.5,85,68,35,30.12,30.05,12,1,13,0.00
2012-12-23,12.1,2.7,-9.5,-2.6,-7.3,-14.1,92,63,47,30.05,29.70,27,5,30,0.00
2012-12-24,5.0,-3.2,-13.2,-4.5,-10.5,-17.7,87,70,57,29.71,29.43,15,2,16,0.00
2012-12-25,11.4,7.0,-3.0,7.1,1.5,-8.7,87,78,64,29.58,29.41,18,3,18,0.00
2012-12-26,16.8,8.4,-7.1,12.5,4.6,-10.9,93,84,66,29.58,29.36,13,2,16,0.00
2012-12-27,31.3,25.2,17.2,24.0,17.6,7.1,87,73,59,29.36,29.23,31,8,31,0.00
2012-12-28,33.9,29.5,21.3,30.2,23.3,14.3,92,78,59,29.31,29.22,20,5,22,0.00
2012-12-29,33.9,30.3,25.3,28.9,26.0,21.4,92,84,76,29.22,29.01,30,8,32,0.00
2012-12-30,36.6,30.7,24.3,26.5,23.3,18.4,92,74,63,29.23,28.92,38,13,41,0.00
2012-12-31,32.7,29.2,26.9,29.6,25.0,18.6,94,84,70,29.49,29.04,18,5,18,0.00
2013-1-1,37.7,32.2,18.4,28.5,23.6,14.0,87,70,62,29.46,29.03,28,9,29,0.01